Location: Beetenbrück
(52.8113°N, 9.5946°E)
Time: 22:01:24
(UTC+00:00)

ALOS 2 - Pass Details

Date: 14 April 2026
Orbit: 630 x 632 km, 97.9° (Epoch: 12 May)

Event Time Altitude Azimuth Distance (km) Brightness Sun altitude
Exits shadow 23:31:05 28° 293° (WNW) 1,189 4.1 -27.5°
Drops below altitude 10° 23:33:59 10° 329° (NNW) 2,027 5.9 -27.4°
Sets 23:36:23 0° 339° (NNW) 2,940 7.0 -27.4°
